Location: Narrabri
(30.3170°S, 149.7830°E)
Time: 23:16:17
(UTC+10:00)

OTV 4 - Visible Passes

Search period start: 24 April 2017 00:00
Search period end: 04 May 2017 00:00
Orbit: 319 x 339 km, 38.0° (Epoch: 17 April)

Date Brightness Start Highest point End Pass type
(mag) Time Alt. Az. Time Alt. Az. Time Alt. Az.
24 Apr 2.5 05:04:17 17° S 05:04:17 17° S 05:05:57 10° SE visible
25 Apr 2.4 05:21:20 15° SSW 05:22:12 17° S 05:24:11 10° SE visible
26 Apr 2.1 05:38:24 12° SW 05:40:20 23° SSE 05:42:39 10° ESE visible
27 Apr 1.2 05:55:42 10° SW 05:58:24 40° SSE 06:01:04 10° E visible
28 Apr 3.0 04:41:31 17° SE 04:41:31 17° SE 04:42:38 10° ESE visible
29 Apr 1.4 04:58:41 38° SE 04:58:41 38° SE 05:01:03 10° E visible
30 Apr 0.1 05:15:54 60° W 05:16:18 77° NNW 05:19:06 10° ENE visible
01 May 1.7 05:33:11 21° WNW 05:34:05 25° NNW 05:36:26 10° NNE visible
